Date String (YYYY-MM-DD hh:mm:ss) UTC,Instrument flags,Ambient pressure (hPa),Sample flow (lpm),Bypass flow (lpm),Sample temperature (°C),Ambient temperature (°C),ASC tube jacket temperature (°C),LED temperature (°C),Box temperature (°C),Sample RH (%),Span deviation,Mass concentration (μg/m³),Mass concentration (μg/m³),Mass concentration (μg/m³)
DateTimeUTC,F1_M11,P_M11,Q1_M11,Q2_M11,T1_M11,T2_M11,T3_M11,T4_M11,T5_M11,U1_M11,ZSPAN_M11,X0_M11,X2_M11,X1_M11
2021-11-13 22:00:00,,0826.0,5.01,0.00,27.7,27.0,00.0,36.7,29.6,12.8,0000.0,0003.16,0000.69,0000.32
2021-11-13 22:01:00,,0826.0,4.99,0.00,27.7,27.0,00.0,36.7,29.5,12.8,0000.0,0002.44,0000.64,0000.32
2021-11-13 22:02:00,,0825.9,5.00,0.00,27.7,27.0,00.0,36.7,29.5,12.8,0000.0,0002.20,0000.62,0000.31
2021-11-13 22:03:00,,0825.8,5.00,0.00,27.8,27.0,00.0,36.7,29.5,12.8,0000.0,0001.13,0000.62,0000.31
2021-11-13 22:04:00,,0825.9,5.00,0.00,27.8,27.0,00.0,36.7,29.6,12.8,0000.0,0001.13,0000.62,0000.31
2021-11-13 22:05:00,,0825.8,5.00,0.00,27.8,27.0,00.0,36.7,29.6,12.9,0000.0,0001.08,0000.61,0000.31
2021-11-13 22:06:00,,0826.0,5.00,0.00,27.8,27.0,00.0,36.7,29.6,12.9,0000.0,0000.98,0000.57,0000.31
2021-11-13 22:07:00,,0825.8,5.01,0.00,27.8,27.0,00.0,36.7,29.6,12.8,0000.0,0000.93,0000.55,0000.32
2021-11-13 22:08:00,,0825.9,4.99,0.00,27.8,27.1,00.0,36.8,29.6,12.9,0000.0,0000.83,0000.52,0000.32
2021-11-13 22:09:00,,0825.9,5.00,0.00,27.8,27.1,00.0,36.8,29.6,12.9,0000.0,0000.74,0000.49,0000.32
2021-11-13 22:10:00,,0825.9,5.01,0.00,27.8,27.1,00.0,36.8,29.6,12.9,0000.0,0000.61,0000.44,0000.32
2021-11-13 22:11:00,,0825.9,4.99,0.00,27.8,27.1,00.0,36.8,29.6,12.9,0000.0,0000.57,0000.41,0000.32
2021-11-13 22:12:00,,0825.9,5.00,0.00,27.9,27.1,00.0,36.8,29.7,12.9,0000.0,0001.98,0000.42,0000.31
2021-11-13 22:13:00,,0825.9,5.01,0.00,27.9,27.1,00.0,36.8,29.7,12.9,0000.0,0001.98,0000.41,0000.31
2021-11-13 22:14:00,,0825.9,5.00,0.00,27.9,27.1,00.0,36.8,29.7,12.9,0000.0,0002.00,0000.41,0000.31
2021-11-13 22:15:00,,0825.9,4.99,0.00,27.9,27.2,00.0,36.8,29.7,13.0,0000.0,0002.13,0000.43,0000.31
2021-11-13 22:16:00,,0825.9,5.01,0.00,27.9,27.2,00.0,36.8,29.7,12.9,0000.0,0002.16,0000.43,0000.31
2021-11-13 22:17:00,,0826.0,4.98,0.00,27.9,27.2,00.0,36.8,29.7,12.9,0000.0,0002.12,0000.42,0000.31
2021-11-13 22:18:00,,0826.0,5.00,0.00,28.0,27.2,00.0,36.9,29.8,12.7,0000.0,0002.09,0000.40,0000.30
2021-11-13 22:19:00,,0826.0,5.01,0.00,28.0,27.2,00.0,36.9,29.8,12.7,0000.0,0003.31,0000.39,0000.29
2021-11-13 22:20:00,,0826.1,4.99,0.00,28.0,27.2,00.0,36.9,29.8,12.7,0000.0,0003.51,0000.40,0000.29
2021-11-13 22:21:00,,0826.2,5.00,0.00,28.0,27.3,00.0,36.9,29.8,12.5,0000.0,0003.58,0000.43,0000.29
2021-11-13 22:22:00,,0826.2,5.00,0.00,28.0,27.3,00.0,36.9,29.8,12.5,0000.0,0003.58,0000.45,0000.30
2021-11-13 22:23:00,,0826.2,5.01,0.00,28.0,27.3,00.0,36.9,29.8,12.6,0000.0,0002.18,0000.43,0000.30
2021-11-13 22:24:00,,0826.3,4.99,0.00,28.0,27.3,00.0,36.9,29.8,12.6,0000.0,0002.18,0000.44,0000.30
2021-11-13 22:25:00,,0826.5,4.99,0.00,28.1,27.3,00.0,36.9,29.9,12.6,0000.0,0002.16,0000.45,0000.30
2021-11-13 22:26:00,,0826.5,5.00,0.00,28.1,27.4,00.0,37.0,29.9,12.5,0000.0,0002.63,0000.44,0000.31
2021-11-13 22:27:00,,0826.5,4.99,0.00,28.1,27.4,00.0,37.0,29.9,12.4,0000.0,0003.10,0000.45,0000.31
2021-11-13 22:28:00,,0826.5,5.00,0.00,28.1,27.4,00.0,37.0,29.9,12.4,0000.0,0003.13,0000.47,0000.31
2021-11-13 22:29:00,,0826.5,5.00,0.00,28.1,27.4,00.0,37.0,29.9,12.6,0000.0,0003.23,0000.48,0000.31
2021-11-13 22:30:00,,0826.5,5.00,0.00,28.1,27.4,00.0,37.0,29.9,12.7,0000.0,0002.02,0000.49,0000.32
2021-11-13 22:31:00,,0826.5,5.00,0.00,28.2,27.4,00.0,37.0,30.0,12.7,0000.0,0001.85,0000.49,0000.32
2021-11-13 22:32:00,,0826.5,5.01,0.00,28.2,27.4,00.0,37.0,30.0,12.7,0000.0,0001.80,0000.47,0000.32
2021-11-13 22:33:00,,0826.4,5.00,0.00,28.2,27.4,00.0,37.1,30.0,12.7,0000.0,0001.81,0000.48,0000.33
2021-11-13 22:34:00,,0826.4,5.00,0.00,28.2,27.5,00.0,37.1,30.0,12.6,0000.0,0001.85,0000.49,0000.32
2021-11-13 22:35:00,,0826.5,5.00,0.00,28.2,27.5,00.0,37.1,30.0,12.6,0000.0,0002.25,0000.51,0000.33
2021-11-13 22:36:00,,0826.5,4.99,0.00,28.2,27.5,00.0,37.1,30.0,12.6,0000.0,0002.65,0000.52,0000.33
2021-11-13 22:37:00,,0826.5,5.00,0.00,28.2,27.5,00.0,37.1,29.9,12.5,0000.0,0002.12,0000.50,0000.33
2021-11-13 22:38:00,,0826.5,5.00,0.00,28.2,27.5,00.0,37.1,30.0,12.5,0000.0,0001.58,0000.50,0000.33
2021-11-13 22:39:00,,0826.5,5.00,0.00,28.2,27.5,00.0,37.1,30.0,12.5,0000.0,0001.64,0000.50,0000.33
2021-11-13 22:40:00,,0826.5,5.00,0.00,28.2,27.5,00.0,37.1,30.0,12.5,0000.0,0001.62,0000.51,0000.33
2021-11-13 22:41:00,,0826.4,5.00,0.00,28.3,27.5,00.0,37.2,30.0,12.5,0000.0,0001.63,0000.52,0000.33
2021-11-13 22:42:00,,0826.5,5.01,0.00,28.3,27.5,00.0,37.2,30.0,12.5,0000.0,0002.34,0000.56,0000.33
2021-11-13 22:43:00,,0826.5,5.01,0.00,28.3,27.5,00.0,37.2,30.0,12.5,0000.0,0002.54,0000.59,0000.33
2021-11-13 22:44:00,,0826.4,4.99,0.00,28.3,27.5,00.0,37.2,30.1,12.5,0000.0,0002.54,0000.58,0000.34
2021-11-13 22:45:00,,0826.4,5.00,0.00,28.3,27.6,00.0,37.2,30.1,12.5,0000.0,0002.53,0000.58,0000.34
2021-11-13 22:46:00,,0826.2,4.99,0.00,28.3,27.6,00.0,37.2,30.1,12.5,0000.0,0002.26,0000.56,0000.34
2021-11-13 22:47:00,,0826.1,5.00,0.00,28.3,27.6,00.0,37.2,30.1,12.5,0000.0,0001.82,0000.57,0000.34
2021-11-13 22:48:00,,0826.0,5.00,0.00,28.3,27.6,00.0,37.2,30.1,12.5,0000.0,0001.90,0000.60,0000.35
2021-11-13 22:49:00,,0825.9,5.00,0.00,28.3,27.6,00.0,37.2,30.2,12.5,0000.0,0001.93,0000.62,0000.35
2021-11-13 22:50:00,,0826.0,5.01,0.00,28.3,27.6,00.0,37.3,30.2,12.5,0000.0,0002.02,0000.63,0000.36
2021-11-13 22:51:00,,0826.1,4.99,0.00,28.3,27.5,00.0,37.3,30.2,12.5,0000.0,0002.14,0000.64,0000.36
2021-11-13 22:52:00,,0826.0,5.00,0.00,28.4,27.5,00.0,37.3,30.2,12.4,0000.0,0002.47,0000.67,0000.37
2021-11-13 22:53:00,,0826.1,5.02,0.00,28.4,27.5,00.0,37.3,30.2,12.4,0000.0,0001.93,0000.66,0000.37
2021-11-13 22:54:00,,0826.2,4.99,0.00,28.3,27.5,00.0,37.3,30.1,12.5,0000.0,0002.05,0000.68,0000.37
2021-11-13 22:55:00,,0826.2,5.00,0.00,28.3,27.5,00.0,37.3,30.1,12.4,0000.0,0002.28,0000.73,0000.38
2021-11-13 22:56:00,,0826.2,5.01,0.00,28.3,27.5,00.0,37.3,30.1,12.3,0000.0,0002.36,0000.76,0000.39
2021-11-13 22:57:00,,0826.2,5.00,0.00,28.3,27.5,00.0,37.3,30.1,12.2,0000.0,0002.77,0000.85,0000.40
2021-11-13 22:58:00,,0826.2,4.99,0.00,28.3,27.5,00.0,37.3,30.0,12.2,0000.0,0003.44,0001.04,0000.42
2021-11-13 22:59:00,,0826.2,5.01,0.00,28.3,27.5,00.0,37.3,30.0,12.1,0000.0,0004.68,0001.23,0000.43
